EW0349 Weather Reports


time (UTC)temp
C
wind
direction
speed
KPH
gust
KPH
rain 1hr
cm
rain 24hr
cm
rain mn
cm
humidity
%
barometer
mb
20260510191608 15 203 1.6 4.8 0.00 0.00 0.00 65 1019.7
20260510190059 15 203 0.0 6.4 0.00 0.00 0.00 65 1019.5
20260510184553 16 209 1.6 8.0 0.00 0.00 0.00 63 1019.7
20260510183050 16 127 0.0 3.2 0.00 0.00 0.00 64 1019.4
20260510181549 15 127 0.0 6.4 0.00 0.00 0.00 63 1019.3
20260510180100 15 213 0.0 4.8 0.00 0.00 0.00 64 1019.2
20260510174548 15 201 3.2 4.8 0.00 0.00 0.00 64 1019.3
20260510173047 15 226 0.0 9.7 0.00 0.00 0.00 65 1019.3
20260510171544 15 199 0.0 4.8 0.00 0.00 0.00 63 1019.2
20260510170045 15 327 0.0 6.4 0.00 0.00 0.00 63 1018.9
20260510164542 14 196 0.0 4.8 0.00 0.00 0.00 64 1018.8
20260510163050 13 188 1.6 6.4 0.00 0.00 0.00 64 1018.8
20260510161551 13 289 3.2 8.0 0.00 0.00 0.00 63 1018.9
20260510160052 13 229 0.0 6.4 0.00 0.00 0.00 62 1018.8
20260510154536 13 295 0.0 4.8 0.00 0.00 0.00 55 1018.8
20260510153044 12 185 3.2 9.7 0.00 0.00 0.00 47 1018.7
20260510151536 11 220 0.0 6.4 0.00 0.00 0.00 37 1018.7
20260510150032 11 225 0.0 1.6 0.00 0.00 0.00 21 1018.4
20260510144541 10 225 0.0 1.6 0.00 0.00 0.00 19 1018.4
20260510143045 10 225 0.0 0.0 0.00 0.00 0.00 16 1018.2
20260510141534 10 225 0.0 0.0 0.00 0.00 0.00 17 1017.9
20260510133035 9 225 0.0 1.6 0.00 0.00 0.00 26 1017.6
20260510130056 9 224 0.0 0.0 0.00 0.00 0.00 29 1017.7
20260510124554 9 224 0.0 1.6 0.00 0.00 0.00 27 1017.4
20260510123051 10 224 0.0 3.2 0.00 0.00 0.00 26 1017.3
20260510121548 9 233 0.0 4.8 0.00 0.00 0.00 18 1017.7
20260510120046 9 288 0.0 3.2 0.00 0.00 0.00 20 1017.5
20260510114544 8 288 0.0 1.6 0.00 0.00 0.00 24 1017.5
20260510113044 9 288 0.0 0.0 0.00 0.00 0.00 28 1017.2
20260510111551 9 288 0.0 0.0 0.00 0.00 0.00 32 1017.3
20260510110037 9 288 0.0 0.0 0.00 0.00 0.00 34 1017.4
20260510104542 10 288 0.0 0.0 0.00 0.00 0.00 40 1016.9
20260510103031 10 288 0.0 1.6 0.00 0.00 0.00 43 1016.8
20260510101528 10 288 0.0 0.0 0.00 0.00 0.00 47 1016.7
20260510100024 11 288 0.0 1.6 0.00 0.00 0.00 48 1016.4
20260510094522 11 288 0.0 1.6 0.00 0.00 0.00 49 1016.1
20260510093019 11 288 0.0 4.8 0.00 0.00 0.00 51 1016.1
20260510091517 11 285 0.0 4.8 0.00 0.00 0.00 56 1016.1
20260510090017 11 287 0.0 4.8 0.00 0.00 0.00 60 1016.0
20260510084511 11 291 0.0 3.2 0.00 0.00 0.00 65 1016.1
20260510083009 12 291 0.0 0.0 0.00 0.00 0.00 68 1015.7
20260510081520 12 291 0.0 3.2 0.00 0.00 0.00 69 1015.8
20260510080003 13 291 0.0 1.6 0.00 0.00 0.00 70 1015.8
20260510074601 13 291 0.0 1.6 0.00 0.00 0.00 70 1015.8
20260510073104 13 292 0.0 3.2 0.00 0.00 0.00 70 1015.8
20260510071558 14 292 0.0 1.6 0.00 0.00 0.00 70 1015.7
20260510070052 15 292 0.0 1.6 0.00 0.00 0.00 69 1015.7
20260510064555 15 286 0.0 6.4 0.00 0.00 0.00 68 1015.6
20260510063046 15 269 0.0 3.2 0.00 0.00 0.00 66 1015.6
20260510061545 15 265 1.6 6.4 0.00 0.00 0.00 66 1015.5
20260510060042 15 241 0.0 4.8 0.00 0.00 0.00 67 1015.5
20260510054530 16 225 1.6 6.4 0.00 0.00 0.00 66 1015.5
20260510053038 16 263 0.0 3.2 0.00 0.00 0.00 64 1015.4
20260510051524 16 269 0.0 6.4 0.00 0.00 0.00 62 1015.1
20260510050016 17 284 0.0 4.8 0.00 0.00 0.00 62 1015.1
20260510044532 17 284 0.0 4.8 0.00 0.00 0.00 62 1015.1
20260510043008 17 283 0.0 4.8 0.00 0.00 0.00 62 1014.9
20260510041503 18 275 1.6 9.7 0.00 0.00 0.00 60 1014.8
20260510040058 18 283 0.0 6.4 0.00 0.00 0.00 59 1014.6
20260510034557 18 290 1.6 4.8 0.00 0.00 0.00 57 1014.4
20260510033106 18 76 0.0 4.8 0.00 0.00 0.00 56 1014.4
20260510031546 20 77 0.0 1.6 0.00 0.00 0.00 57 1014.2
20260510030046 20 77 0.0 3.2 0.00 0.00 0.00 53 1014.2
20260510024537 21 77 0.0 3.2 0.00 0.00 0.00 50 1014.1
20260510023033 22 77 0.0 0.0 0.00 0.00 0.00 46 1014.1
20260510021532 22 77 0.0 0.0 0.00 0.00 0.00 42 1014.1
20260510020026 22 77 0.0 1.6 0.00 0.00 0.00 40 1014.1
20260510014521 22 77 0.0 3.2 0.00 0.00 0.00 40 1014.2
20260510013016 23 78 0.0 3.2 0.00 0.00 0.00 40 1014.3
20260510011515 23 78 0.0 3.2 0.00 0.00 0.00 43 1014.4
20260510010006 23 78 1.6 4.8 0.00 0.00 0.00 43 1014.5
20260510004501 23 88 0.0 3.2 0.00 0.00 0.00 43 1014.6
20260510003103 23 89 0.0 4.8 0.00 0.00 0.00 43 1014.7
20260510001556 23 86 0.0 4.8 0.00 0.00 0.00 41 1014.7
20260510000054 24 65 1.6 8.0 0.00 0.00 0.00 42 1014.9
20260509234555 25 89 0.0 6.4 0.00 0.00 0.00 38 1014.9
20260509233043 23 71 0.0 4.8 0.00 0.00 0.00 39 1015.1
20260509231537 23 59 1.6 6.4 0.00 0.00 0.00 42 1015.3
20260509230031 23 310 0.0 8.0 0.00 0.00 0.00 41 1015.5
20260509224526 23 316 1.6 6.4 0.00 0.00 0.00 42 1015.7
20260509223023 23 217 1.6 8.0 0.00 0.00 0.00 42 1016.0
20260509221519 23 19 3.2 9.7 0.00 0.00 0.00 46 1016.1
20260509220013 22 57 1.6 8.0 0.00 0.00 0.00 48 1016.5
20260509214509 22 26 1.6 9.7 0.00 0.00 0.00 51 1016.8
20260509213005 22 50 1.6 4.8 0.00 0.00 0.00 48 1017.0
20260509211501 22 82 1.6 6.4 0.00 0.00 0.00 50 1017.1
20260509210056 21 22 3.2 6.4 0.00 0.00 0.00 54 1017.2
20260509204555 20 32 1.6 8.0 0.00 0.00 0.00 57 1017.3
20260509203047 20 103 1.6 8.0 0.00 0.00 0.00 53 1017.5
20260509201553 20 244 3.2 8.0 0.00 0.00 0.00 58 1017.7
20260509200050 20 302 1.6 11.3 0.00 0.00 0.00 58 1017.7
20260509194534 20 14 3.2 11.3 0.00 0.00 0.00 58 1018.0
20260509193036 19 319 1.6 4.8 0.00 0.00 0.00 60 1018.1